Weather History for Bishop, CA

Change the Weather History Date:

Tuesday, August 20, 2013

  Actual Average Record
Temperature  
Mean Temperature 76 °F 74 °F  
Max Temperature 97 °F 96 °F 104 °F (1950)
Min Temperature 55 °F 53 °F 37 °F (1959)
Degree Days  
Heating Degree Days 0 0  
Month to date heating degree days 0 0  
Since 1 June heating degree days 0 20  
Since 1 July heating degree days 0 1  
Cooling Degree Days 11 10  
Month to date cooling degree days 183 221  
Year to date cooling degree days 1054 885  
Since 1 June cooling degree days 968 817  
Growing Degree Days 22 (Base 50)    
Moisture  
Dew Point 44 °F    
Average Humidity 43    
Maximum Humidity 72    
Minimum Humidity 14    
Precipitation  
Precipitation T in 0.00 in 0.05 in (1975)
Month to date precipitation 0.16 0.08  
Year to date precipitation 1.11 3.32  
Snow  
Snow 0.00 in 0.00 in - ()
Month to date snowfall 0.0 0.0  
Since 1 June snowfall 0.0 0.0  
Since 1 July snowfall 0.0 0.0  
Snow Depth 0.00 in    
Sea Level Pressure  
Sea Level Pressure 29.89 in    
Wind  
Wind Speed 8 mph (NW)    
Max Wind Speed 26 mph    
Max Gust Speed 29 mph    
Visibility 10 miles    
Events      
T = Trace of Precipitation, MM = Missing Value Source: NWS Daily Summary

Daily Weather History Graph

Daily Weather History Graph

Search for Another Location

Airport:

Trip Planner

Search our weather history database for the weather conditions in past years. The results will help you decide how hot, cold, wet, or windy it might be!

Date:

Astronomy

Aug. 20, 2013 Rise Set
Actual Time 6:14 AM PDT 7:38 PM PDT
Civil Twilight 5:46 AM PDT 8:05 PM PDT
Nautical Twilight 5:13 AM PDT 8:38 PM PDT
Astronomical Twilight 4:39 AM PDT 9:13 PM PDT
Moon 7:14 PM PDT (8/20) 5:49 AM PDT (8/20)
Length of Visible Light 14h 19m
Length of Day
13h 24m
Full, 100% of the Moon is Illuminated
Aug 20
Full
Aug 20
Full
Aug 28
Last Quarter
Sep 5
New
Sep 12
First Quarter

Hourly Weather History & Observations

Time (PDT) Temp. Dew Point Humidity Pressure Visibility Wind Dir Wind Speed Gust Speed Precip Events Conditions
12:56 AM 66.0 °F 48.0 °F 52% 29.95 in 10.0 mi North 5.8 mph - N/A   Clear
1:56 AM 66.0 °F 48.0 °F 52% 29.94 in 10.0 mi WNW 6.9 mph - N/A   Clear
2:56 AM 62.1 °F 48.9 °F 62% 29.93 in 10.0 mi Calm Calm - N/A   Clear
3:56 AM 59.0 °F 48.0 °F 67% 29.93 in 10.0 mi NNW 4.6 mph - N/A   Clear
4:56 AM 59.0 °F 46.9 °F 64% 29.94 in 10.0 mi North - - N/A   Clear
5:56 AM 55.9 °F 46.9 °F 72% 29.95 in 10.0 mi North 4.6 mph - N/A   Clear
6:56 AM 57.9 °F 46.0 °F 65% 29.96 in 10.0 mi WNW 4.6 mph - N/A   Clear
7:56 AM 69.1 °F 48.0 °F 47% 29.95 in 10.0 mi NNW 3.5 mph - N/A   Clear
8:56 AM 75.0 °F 46.9 °F 37% 29.94 in 10.0 mi West 3.5 mph - N/A   Clear
11:56 AM 90.0 °F 45.0 °F 21% 29.88 in 10.0 mi South 9.2 mph - N/A   Clear
12:56 PM 93.9 °F 42.1 °F 17% 29.86 in 10.0 mi SSE 16.1 mph 25.3 mph N/A   Clear
1:56 PM 95.0 °F 41.0 °F 15% 29.82 in 10.0 mi SSE 13.8 mph 23.0 mph N/A   Clear
2:56 PM 96.1 °F 39.0 °F 14% 29.80 in 10.0 mi SSE 12.7 mph 23.0 mph N/A   Clear
3:56 PM 91.0 °F 42.1 °F 18% 29.81 in 10.0 mi SSE 19.6 mph 26.5 mph N/A   Clear
4:56 PM 88.0 °F 37.0 °F 16% 29.84 in 10.0 mi West 16.1 mph 28.8 mph N/A   Scattered Clouds
5:56 PM 87.1 °F 39.9 °F 19% 29.85 in 10.0 mi East 3.5 mph - N/A   Clear
6:56 PM 84.0 °F 39.9 °F 21% 29.87 in 10.0 mi WNW 10.4 mph - 0.00 in   Partly Cloudy
7:56 PM 81.0 °F 42.1 °F 25% 29.89 in 10.0 mi North 19.6 mph 28.8 mph N/A   Scattered Clouds
8:56 PM 78.1 °F 43.0 °F 29% 29.88 in 10.0 mi North 4.6 mph - 0.00 in   Clear
9:56 PM 75.9 °F 43.0 °F 31% 29.88 in 10.0 mi WSW 5.8 mph - N/A   Clear
10:56 PM 70.0 °F 44.1 °F 39% 29.89 in 10.0 mi North 6.9 mph - N/A   Clear
11:56 PM 69.1 °F 44.1 °F 40% 29.91 in 10.0 mi WNW 4.6 mph - N/A   Clear